FW9019 Weather Reports


Display with metric or nautical units.
time (UTC)temp
F
wind
direction
speed
MPH
gust
MPH
rain 1hr
in
rain 24hr
in
rain mn
in
humidity
%
barometer
mb
20260508115055 49 0.0 0.0 0.00 0.00 0.00 59 1012.6
20260508114035 48 0.0 0.0 0.00 0.00 0.00 61 1012.6
20260508113120 46 0.0 0.0 0.00 0.00 0.00 64 1012.6
20260508112026 47 0.0 0.0 0.00 0.00 0.00 63 1012.7
20260508111108 47 0.0 0.0 0.00 0.00 0.00 62 1012.6
20260508110049 47 110 0.0 1.0 0.00 0.00 0.00 62 1012.4
20260508105059 47 110 0.0 1.0 0.00 0.00 0.00 61 1012.3
20260508104130 47 110 0.0 1.0 0.00 0.00 0.00 61 1012.2
20260508103110 47 110 0.0 1.0 0.00 0.00 0.00 62 1012.2
20260508102030 47 110 0.0 1.0 0.00 0.00 0.00 61 1012.2
20260508101112 48 110 0.0 1.0 0.00 0.00 0.00 62 1012.2
20260508100052 48 0.0 0.0 0.00 0.00 0.00 61 1012.3
20260508095032 48 0.0 0.0 0.00 0.00 0.00 60 1012.3
20260508094134 49 0.0 0.0 0.00 0.00 0.00 59 1012.3
20260508093043 49 110 0.0 1.0 0.00 0.00 0.00 58 1012.3
20260508092105 50 110 0.0 1.0 0.00 0.00 0.00 57 1012.3
20260508091045 50 0.0 0.0 0.00 0.00 0.00 56 1012.3
20260508090025 51 110 0.0 1.0 0.00 0.00 0.00 55 1012.3
20260508085107 51 110 1.0 2.0 0.00 0.00 0.00 55 1012.3
20260508084107 51 110 1.0 2.0 0.00 0.00 0.00 55 1012.5
20260508083100 51 110 0.0 1.0 0.00 0.00 0.00 55 1012.6
20260508082110 51 109 1.0 3.0 0.00 0.00 0.00 55 1012.6
20260508081113 51 108 0.0 1.0 0.00 0.00 0.00 55 1012.7
20260508080120 51 108 1.0 3.0 0.00 0.00 0.00 55 1012.8
20260508075041 51 108 1.0 2.0 0.00 0.00 0.00 55 1013.0
20260508074020 51 108 1.0 2.0 0.00 0.00 0.00 54 1012.8
20260508073031 52 108 2.0 3.0 0.00 0.00 0.00 52 1012.7
20260508072113 52 113 1.0 2.0 0.00 0.00 0.00 51 1013.1
20260508071042 51 113 1.0 2.0 0.00 0.00 0.00 51 1013.0
20260508070033 51 113 1.0 3.0 0.00 0.00 0.00 52 1012.8
20260508065044 51 113 0.0 2.0 0.00 0.00 0.00 53 1012.9
20260508064024 51 134 0.0 3.0 0.00 0.00 0.00 53 1013.1
20260508063106 50 136 1.0 2.0 0.00 0.00 0.00 54 1013.1
20260508062148 50 136 0.0 2.0 0.00 0.00 0.00 54 1013.2
20260508061058 50 136 0.0 1.0 0.00 0.00 0.00 54 1013.1
20260508060109 50 136 0.0 1.0 0.00 0.00 0.00 54 1013.3
20260508055049 50 0.0 0.0 0.00 0.00 0.00 55 1013.2
20260508054028 50 0.0 0.0 0.00 0.00 0.00 56 1013.1
20260508053110 50 0.0 0.0 0.00 0.00 0.00 56 1013.2
20260508052050 50 0.0 0.0 0.00 0.00 0.00 57 1013.1
20260508051051 50 0.0 0.0 0.00 0.00 0.00 58 1013.1
20260508050112 50 0.0 0.0 0.00 0.00 0.00 59 1013.2
20260508045052 49 136 1.0 2.0 0.00 0.00 0.00 60 1013.3
20260508044103 49 136 0.0 1.0 0.00 0.00 0.00 62 1013.2
20260508043103 49 136 0.0 1.0 0.00 0.00 0.00 63 1013.2
20260508042023 50 136 0.0 1.0 0.00 0.00 0.00 63 1013.2
20260508041105 50 136 0.0 1.0 0.00 0.00 0.00 63 1013.1
20260508040045 50 0.0 0.0 0.00 0.00 0.00 64 1013.0
20260508035056 49 136 0.0 2.0 0.00 0.00 0.00 65 1013.1
20260508034107 49 136 0.0 1.0 0.00 0.00 0.00 67 1013.1
20260508033047 48 0.0 0.0 0.00 0.00 0.00 70 1013.1
20260508032027 48 0.0 0.0 0.00 0.00 0.00 71 1013.2
20260508031129 48 0.0 0.0 0.00 0.00 0.00 72 1013.2
20260508030049 47 0.0 0.0 0.00 0.00 0.00 71 1013.2
20260508025029 48 0.0 0.0 0.00 0.00 0.00 71 1013.2
20260508024111 48 0.0 0.0 0.00 0.00 0.00 71 1013.2
20260508023052 48 0.0 0.0 0.00 0.00 0.00 70 1012.9
20260508022031 48 0.0 0.0 0.00 0.00 0.00 70 1013.0
20260508021113 49 0.0 0.0 0.00 0.00 0.00 71 1013.0
20260508020053 49 0.0 0.0 0.00 0.00 0.00 70 1012.9
20260508015033 49 0.0 0.0 0.00 0.00 0.00 71 1012.8
20260508014115 48 0.0 0.0 0.00 0.00 0.00 71 1012.7
20260508013026 49 0.0 0.0 0.00 0.00 0.00 70 1012.7
20260508012126 49 0.0 0.0 0.00 0.00 0.00 69 1012.8
20260508011046 49 0.0 0.0 0.00 0.00 0.00 67 1012.7
20260508010046 50 0.0 0.0 0.00 0.00 0.00 66 1012.8
20260508005128 50 0.0 0.0 0.00 0.00 0.00 65 1012.7
20260508004048 51 136 0.0 1.0 0.00 0.00 0.00 63 1013.1
20260508003028 51 136 0.0 1.0 0.00 0.00 0.00 64 1013.3
20260508002110 51 136 0.0 1.0 0.00 0.00 0.00 64 1013.1
20260508001050 51 0.0 0.0 0.00 0.00 0.00 64 1013.2
20260508000030 51 136 0.0 1.0 0.00 0.00 0.00 64 1013.2
20260507235112 51 0.0 0.0 0.00 0.00 0.00 64 1013.3
20260507234052 51 136 0.0 1.0 0.00 0.00 0.00 64 1013.2
20260507233052 51 136 0.0 1.0 0.00 0.00 0.00 65 1013.1
20260507232134 50 207 1.0 2.0 0.00 0.00 0.00 67 1013.3
20260507231114 51 142 2.0 7.0 0.00 0.00 0.00 66 1013.8
20260507230034 53 135 1.0 5.0 0.00 0.00 0.00 58 1014.0
20260507225116 57 120 1.0 3.0 0.00 0.00 0.00 36 1013.4
20260507224056 58 118 1.0 2.0 0.00 0.00 0.00 33 1013.1
20260507223036 58 117 1.0 3.0 0.00 0.00 0.00 32 1012.9
20260507222117 59 113 1.0 3.0 0.00 0.00 0.00 32 1012.7
20260507221117 59 116 1.0 3.0 0.00 0.00 0.00 32 1012.5
20260507220058 59 128 1.0 3.0 0.00 0.00 0.00 32 1012.6
20260507215018 59 99 1.0 3.0 0.00 0.00 0.00 32 1012.5
20260507214120 60 98 2.0 3.0 0.00 0.00 0.00 30 1012.4
20260507213040 61 100 2.0 3.0 0.00 0.00 0.00 30 1012.4
20260507212020 61 110 2.0 3.0 0.00 0.00 0.00 30 1012.6
20260507211102 60 109 1.0 3.0 0.00 0.00 0.00 31 1012.6
20260507210042 60 114 2.0 3.0 0.00 0.00 0.00 30 1012.6
20260507205022 60 117 1.0 2.0 0.00 0.00 0.00 32 1012.8
20260507204104 62 136 2.0 2.0 0.00 0.00 0.00 30 1012.9
20260507203044 61 110 2.0 3.0 0.00 0.00 0.00 30 1013.1
20260507202044 61 113 1.0 2.0 0.00 0.00 0.00 30 1013.1
20260507201106 62 116 2.0 3.0 0.00 0.00 0.00 29 1013.4
20260507200046 61 122 0.0 1.0 0.00 0.00 0.00 30 1013.4
20260507195026 62 117 1.0 2.0 0.00 0.00 0.00 29 1013.6
20260507194108 62 115 1.0 3.0 0.00 0.00 0.00 29 1013.8
20260507193048 63 112 1.0 3.0 0.00 0.00 0.00 29 1013.8
20260507192048 61 142 1.0 2.0 0.00 0.00 0.00 29 1013.8
20260507191110 62 126 1.0 3.0 0.00 0.00 0.00 29 1014.0
20260507190050 62 92 1.0 3.0 0.00 0.00 0.00 28 1014.0
20260507185030 62 112 1.0 3.0 0.00 0.00 0.00 28 1014.1
20260507184041 62 118 2.0 3.0 0.00 0.00 0.00 27 1014.1
20260507183021 61 112 1.0 3.0 0.00 0.00 0.00 30 1014.3
20260507182103 60 118 1.0 2.0 0.00 0.00 0.00 32 1014.4
20260507181043 61 135 1.0 2.0 0.00 0.00 0.00 29 1014.4
20260507180125 61 117 1.0 1.0 0.00 0.00 0.00 30 1014.4
20260507175034 60 116 1.0 2.0 0.00 0.00 0.00 30 1014.9
20260507174136 59 116 1.0 2.0 0.00 0.00 0.00 31 1014.9
20260507173056 59 118 2.0 3.0 0.00 0.00 0.00 32 1014.9
20260507172037 60 149 1.0 3.0 0.00 0.00 0.00 32 1015.2
20260507171047 59 149 2.0 3.0 0.00 0.00 0.00 32 1015.2
20260507170027 59 116 1.0 3.0 0.00 0.00 0.00 31 1015.2
20260507165109 59 116 1.0 2.0 0.00 0.00 0.00 32 1015.5
20260507164049 59 116 1.0 2.0 0.00 0.00 0.00 32 1015.6
20260507163029 58 133 2.0 3.0 0.00 0.00 0.00 33 1015.7
20260507162043 58 131 2.0 5.0 0.00 0.00 0.00 32 1015.8
20260507161051 59 155 1.0 5.0 0.00 0.00 0.00 31 1015.8
20260507155043 58 129 1.0 3.0 0.00 0.00 0.00 30 1015.6
20260507154054 58 120 1.0 3.0 0.00 0.00 0.00 30 1015.8
20260507153104 58 138 1.0 3.0 0.00 0.00 0.00 31 1015.8
20260507152044 57 131 1.0 2.0 0.00 0.00 0.00 31 1015.8
20260507151024 57 145 1.0 3.0 0.00 0.00 0.00 31 1015.8
20260507150106 57 143 2.0 5.0 0.00 0.00 0.00 31 1015.7
20260507145046 57 154 1.0 2.0 0.00 0.00 0.00 32 1015.7
20260507144057 56 141 1.0 2.0 0.00 0.00 0.00 32 1015.7
20260507143038 55 136 1.0 3.0 0.00 0.00 0.00 31 1015.8
20260507142119 54 136 1.0 3.0 0.00 0.00 0.00 34 1015.8
20260507141059 55 134 1.0 3.0 0.00 0.00 0.00 34 1015.8
20260507140059 54 118 1.0 3.0 0.00 0.00 0.00 36 1015.8
20260507135020 54 118 1.0 3.0 0.00 0.00 0.00 36 1015.8
20260507134100 54 122 1.0 3.0 0.00 0.00 0.00 36 1015.7
20260507133101 54 130 1.0 2.0 0.00 0.00 0.00 37 1015.7
20260507132021 54 130 0.0 1.0 0.00 0.00 0.00 38 1015.6
20260507131123 55 130 0.0 1.0 0.00 0.00 0.00 39 1015.7
20260507130042 53 128 0.0 1.0 0.00 0.00 0.00 43 1015.9
20260507125023 52 128 0.0 1.0 0.00 0.00 0.00 45 1015.7
20260507124105 51 0.0 0.0 0.00 0.00 0.00 49 1015.8
20260507123045 49 0.0 0.0 0.00 0.00 0.00 58 1015.6
20260507122057 46 0.0 0.0 0.00 0.00 0.00 77 1015.5
20260507121036 41 0.0 0.0 0.00 0.00 0.00 85 1015.4
20260507120108 38 0.0 0.0 0.00 0.00 0.00 85 1015.4